Simultaneous Nadir Overpasses (SNOs) Predictions

Prediction of SNOs between METOP-B and NOAA-19 Satellite Orbit:

Table of predicted SNOs for the next 14.0 days since TLE Epoch: 6/1/2024
Index Date (METOP-B) Time (METOP-B) Lat,Lon (METOP-B) SZA (METOP-B ) Date (NOAA-19) Time (NOAA-19) Lat,Lon (NOAA-19) SZA (NOAA-19 ) Distance(km) Time Diff (sec)
1 06/07/2024 13:13:29 71.78, -30.52 49.32 06/07/2024 13:12:17 71.80, -30.45 49.36 3.11 72
2 06/07/2024 14:04:01 -72.31, 137.79 130.24 06/07/2024 14:03:10 -72.32, 137.82 130.22 1.65 51
3 06/07/2024 14:54:35 72.57, -54.35 49.99 06/07/2024 14:54:00 72.55, -54.41 49.98 2.97 35
4 06/07/2024 15:45:00 -73.44, 114.81 129.27 06/07/2024 15:44:45 -73.46, 114.86 129.25 2.63 15
5 06/07/2024 16:35:35 73.65, -77.37 50.92 06/07/2024 16:35:36 73.64, -77.43 50.91 2.50 1
6 06/07/2024 17:26:05 -74.25, 91.39 128.56 06/07/2024 17:26:27 -74.23, 91.32 128.58 2.86 22
7 06/07/2024 18:16:38 74.56,-100.47 51.73 06/07/2024 18:17:15 74.55,-100.52 51.71 1.86 37
8 06/07/2024 19:07:10 -75.04, 68.16 127.84 06/07/2024 19:08:08 -75.03, 68.12 127.85 1.74 58



Historial Predications of SNOs between METOP-B and NOAA-19
